H-2A DEB, 43069

Orbit data source: Space-Track

H-2A DEB, 43069 is space debris in SSO originally from a launch on Sat, 23 Dec 2017 UTC launched from the Tanegashima Space Center (TNSTA). Debris objects in space refer to the collection of defunct objects orbiting the Earth. Examples of debris include non-operational satellites, rocket bodies, and fragments generated from explosions, collisions, or faulty payload assembly.

Loading next visibility...
Identifier
43069, 2017-082E
Orbit
SSO
Country
Flag of JPJP / JPN
Related business
Manufacturer
MELCO
Mission
Spacecraft
Bus & Motor
Unknown
Mass
Unknown
Launch date (UTC)
2017-12-23 (8 years ago)
Launch vehicle
Unknown
Launch site
Tanegashima Space Center (TNSTA)
Object type
Payload
Rocket body
Debris
Shape & HBR
Unknown
Radar Cross Section
Small (<0.1 m²)

Expand to show TLE details & history
Last TLE update: 18 hours ago

TLE from 18 hours ago
0 H-2A DEB
1 43069U 17082E   25260.14864641  .00004281  00000-0  10152-2 0  9995
2 43069  98.2791 325.1464 0023160 253.2013 106.6643 14.54335921407007
Epoch: 2025-09-17T03:34Z
TLE epoch observation values (Epoch: 2025-09-17T03:34:03.049Z)
Latitude
-0.00004°
Longitude
-84.69505°
Altitude
719.241 km
Speed
7.493 km/s
True Right ascension
21h 40m 35s
True Declination
0° 00' 00"
Sunlit
Object was in full shadow at epoch
Visualization orbit readout
Latitude
Unknown
Longitude
Unknown
Altitude
Unknown
Speed
Unknown
Apparent Right ascension
Unknown
Apparent Declination
Unknown
Sunlit
N/A
Visualization observer readout
Local Sidereal Time
13:57:15
Azimuth
Unknown
Elevation
Unknown
Doppler factor
Unknown
Orbital elements
Apogee altitude
725.027 km
Perigee altitude
692.202 km
Semi-major axis
7,086.752 km
Eccentricity
0.00232
Inclination
98.2791°
RAAN
325.1464°
Arg. of periapsis
253.2013°
True anomaly
106.91834°
Mean anomaly
106.6643°
Eccentric anomaly
106.79134°
Mean motion
3.63808 °/min
Orbital period
98.95 mins
BSTAR
0.0010152
Loading maneuver chart data...
Computing Atmospheric mass density...
Loading historical data...
Loading historical data...
Loading historical data...
Loading historical data...
Loading historical data...
Loading historical data...
Loading historical data...
Other satellites on launch #82 in the year 2017 (2017-12-23 UTC)

Documentation

Showing up to 5 results
|